www.pogodaiklimat.ru

Погода и климат >> Архив погоды >> Россия >> Ненецкий АО >> Усть-Кара


ПОГОДА в Усть-Каре

  • Прогноз погоды в Усть-Каре
  • Монитор погоды в Усть-Каре

АРХИВ ПОГОДЫ в Усть-Каре

Время (UTC), дата Ветер
(напр.,м/с)
 
Видим.   Явления Облачность Т
(С)
Тd
(С)
f
(%)
Тe
(С)
Тes
(С)
Комфортность P
(гПа)
Po
(гПа)
Тmin
(С)
Tmax
(С)
R
(мм)
R24
(мм)
S
(см)
06 17.02 ЮВ 1 10 км 10/8 300 м
[St Ac trans]
-11.2 -11.8 95 -13 -13 989.3 988.9
09 17.02 штиль 0 10 км {ливн. осадки} 10/8 300 м
[St Ac trans]
-12.0 -12.7 95 -12 -12 989.8 989.4
12 17.02 СВ 4 4000 м слаб. ливневой снег 10/8 300 м
[Cb cap Ac trans]
-11.2 -11.7 96 -18 -18 989.9 989.5
15 17.02 Ю 3 10 км {ливн. осадки} 9/6 600 м
[Sc Ac trans]
-13.5 -14.2 94 -20 -20 989.6 989.2 -10.6 0.9
18 17.02 Ю 2 4000 м слаб. ливневой снег 9/8 300 м
[Cb cap Ac trans]
-13.6 -14.4 94 -18 -18 989.1 988.7
21 17.02 Ю 2 10 км {ливн. осадки} 9/6 600 м
[Sc Ac trans]
-14.1 -14.9 94 -19 -19 988.5 988.1
00 18.02 З 1 10 км {ливн. осадки} 9/5 600 м
[Sc Ac trans]
-14.9 -15.7 94 -17 -17 988.1 987.7
03 18.02 С 3 10 км 9/8 600 м
[Sc Ac trans]
-12.4 -13.0 95 -18 -18 987.9 987.5 -18.0 0.2 105
06 18.02 С 5 4000 м слаб. ливневой снег 9/9 300 м
[Cb cap]
-13.6 -14.6 92 -22 -22 989.2 988.8
09 18.02 СЗ 8-10
{10}
20 км {ливн. осадки} 10/10 600 м
[Sc]
-16.9 -18.5 87 -28 -28 991.7 991.3
12 18.02 СЗ 5
{10}
20 км {ливн. осадки} 8/6 600 м
[Sc Ac trans]
-20.0 -22.0 84 -30 -30 994.4 994.0
15 18.02 З 3 20 км ясно -23.0 -24.7 86 -31 -31 опасность
обморожения
997.1 996.7 -12.3 0.0
18 18.02 ЮЗ 3 20 км ясно -27.4 -29.5 82 -36 -36 опасность
обморожения
999.4 999.0
21 18.02 Ю 6 20 км ясно -28.0 -30.4 80 -41 -41 опасность
обморожения
1008.5 1008.1
00 19.02 Ю 7 20 км ясно -26.9 -29.4 79 -41 -41 опасность
обморожения
999.4 999.0
06 19.02 Ю 12-16
{16}
200 м мгла {туман} 9/0
[Ac trans Ci fib]
-20.7 -22.5 85 -36 -36 опасность
обморожения
998.2 997.8
09 19.02 Ю 11-15
{19}
200 м мгла {туман} 6/0
[Ac trans Ci fib]
-19.9 -21.5 87 -34 -34 опасность
обморожения
998.4 998.0
12 19.02 Ю 10-13
{15}
200 м мгла {туман} 6/0
[Ac trans]
-19.3 -20.8 88 -33 -33 опасность
обморожения
998.0 997.6
15 19.02 Ю 10-12
{15}
500 м мгла {туман} 8/0
[Ac trans]
-19.3 -20.8 88 -33 -33 опасность
обморожения
997.8 997.4 -19.2
18 19.02 Ю 9-12
{13}
1000 м мгла {туман} 9/0
[Ac trans]
-16.3 -17.4 91 -28 -28 996.8 996.4
21 19.02 Ю 9-12
{13}
4000 м слаб. ливневой снег {туман} 9/9 300 м
[Cb cap]
-15.2 -16.2 92 -27 -27 996.5 996.1
00 20.02 ЮЗ 8-12
{13}
2000 м метель {ливн. осадки, туман} 10/0
[Ac trans]
-14.4 -15.4 92 -25 -25 996.0 995.6
03 20.02 ЮЗ 7
{13}
10 км {метель} 10/0
[Ac trans]
-15.6 -16.7 91 -26 -26 996.6 996.2 -19.3 0.0 105
06 20.02 Ю 5 20 км {метель} 6/0
[Ac trans]
-17.4 -18.7 90 -27 -27 998.0 997.6
09 20.02 Ю 4 20 км 6/0
[Ac trans]
-17.8 -19.3 88 -26 -26 1000.0 999.6
12 20.02 Ю 4 20 км 8/6 600 м
[Sc Ac trans]
-20.1 -21.5 89 -29 -29 1002.4 1002.0
15 20.02 Ю 4 20 км ясно -21.6 -23.1 88 -31 -31 опасность
обморожения
1003.9 1003.5 -15.6
18 20.02 Ю 3 20 км ясно -22.4 -24.0 87 -30 -30 1004.8 1004.4
21 20.02 ЮЗ 1 20 км ясно -20.6 -22.0 88 -24 -24 1005.1 1004.7
00 21.02 В 5 20 км ясно -18.5 -19.7 90 -28 -28 1004.5 1004.1
06 21.02 СВ 8 500 м мгла {туман} 8/5 600 м
[Sc Ac trans]
-17.6 -18.7 91 -29 -29 1003.9 1003.5
09 21.02 СВ 8-10
{10}
2000 м позёмок {ливн. осадки, туман} 10/6 600 м
[Sc Ac trans]
-17.9 -19.0 91 -30 -30 1003.5 1003.1
12 21.02 СВ 9-10
{10}
2000 м слаб. ливневой снег {туман} 10/8 300 м
[Cb cap Ac trans]
-18.2 -19.5 89 -31 -31 опасность
обморожения
1003.6 1003.2
15 21.02 СВ 9-11
{11}
4000 м слаб. ливневой снег {туман} 10/10 300 м
[Cb cap]
-18.0 -19.3 90 -30 -30 1004.4 1004.0 -17.5 0.4
18 21.02 СВ 8-10
{12}
4000 м слаб. ливневой снег {метель} 10/6 300 м
[Cb cap Ac trans]
-18.5 -19.9 89 -30 -30 1005.9 1005.5
21 21.02 СВ 7
{11}
4000 м слаб. ливневой снег {метель} 8/5 300 м
[Cb cap Ac trans]
-19.4 -20.8 89 -31 -31 опасность
обморожения
1007.9 1007.5
00 22.02 С 6 20 км {ливн. осадки, метель} ясно -20.5 -22.0 88 -32 -32 опасность
обморожения
1010.5 1010.1
03 22.02 С 4 20 км 1/0
[Ac trans]
-21.6 -23.3 86 -31 -31 опасность
обморожения
1013.6 1013.2 -21.6 0.3 103
06 22.02 С 3 20 км 1/0
[Ac trans]
-21.9 -23.7 85 -30 -29 1016.3 1015.9 -22.1
09 22.02 З 1 20 км ясно -23.4 -25.4 84 -27 -26 1019.0 1018.6
12 22.02 ЮЗ 3 20 км ясно -24.4 -26.3 84 -33 -33 опасность
обморожения
1020.9 1020.5
15 22.02 Ю 6 20 км ясно -27.2 -29.7 79 -40 -40 опасность
обморожения
1021.1 1020.7 -21.6
18 22.02 Ю 7 20 км ясно -26.5 -28.8 81 -40 -40 опасность
обморожения
1020.6 1020.2
21 22.02 Ю 9-12
{12}
20 км ясно -27.2 -29.6 80 -42 -42 опасность
обморожения
1019.3 1018.9
00 23.02 Ю 6
{12}
20 км ясно -26.2 -28.5 81 -39 -39 опасность
обморожения
1016.7 1016.3
06 23.02 Ю 10-13
{15}
500 м сильный позёмок {туман} 10/0
[Ac trans]
-23.0 -24.9 84 -38 -38 опасность
обморожения
1010.5 1010.1
09 23.02 Ю 13-17
{18}
500 м сильная метель {туман} 10/8 600 м
[Sc Ac trans]
-19.4 -21.0 87 -34 -34 опасность
обморожения
1006.3 1005.9
12 23.02 Ю 13-18
{18}
500 м сильная метель {туман} 10/8 600 м
[Sc Ci fib]
-17.0 -18.3 90 -31 -31 опасность
обморожения
1002.6 1002.2
15 23.02 Ю 12-15
{19}
500 м сильная метель 3/3 600 м
[Sc]
-16.3 -17.3 92 -30 -30 999.4 999.0 -16.1
18 23.02 Ю 14-18
{18}
200 м слаб. ливневой снег {метель} 10/10 300 м
[Cb cap]
-13.7 -14.5 94 -27 -27 995.6 995.2
21 23.02 Ю 13-17
{19}
200 м слаб. ливневой снег {метель} 10/10 300 м
[Cb cap]
-12.2 -12.9 95 -25 -25 992.8 992.4
00 24.02 Ю 11-15
{19}
500 м слаб. ливневой снег {метель} 10/10 300 м
[Cb cap]
-11.2 -11.7 96 -23 -23 990.9 990.5

 

Местоположение метеостанции Усть-Кара (Ненецкий АО, Россия): широта 69.25 долгота 64.93 высота над уровнем моря 3 м.

В архиве по умолчанию представлена погода в Усть-Каре за последнюю неделю. Архивные данные за месяц целиком и за предыдущие месяцы, начиная с января 2011 года, Вы можете получить, выбрав интересующий диапазон дат из раскрывающегося списка и нажав кнопку "Ввод!".


*Определитесь, кто Вы:
робот инопланетянин человек

Внимание! Время в таблицах - всемирное. Для получения местного времени необходимо прибавить поправку, которая равна 3 ч.

Смотрите также архив погоды в соседних городах и на ближайших метеорологических станциях:

Погода в Марресале (Ямало-Ненецкий АО, Россия) (89 км)
Погода в Амдерме (Ненецкий АО, Россия) (139 км)
Погода на Мысе Белый Нос (Ненецкий АО, Россия) (189 км)
Погода в Воркуте (Коми, Россия) (201 км)
Погода в Елецкой (Коми, Россия) (247 км)
Погода в Имени Федорова (Ненецкий АО, Россия) (261 км)
Погода в Харпе (Ямало-Ненецкий АО, Россия) (275 км)
Погода в Варандее (Ненецкий АО, Россия) (279 км)
Погода в Белоярске (Ямало-Ненецкий АО, Россия) (296 км)
Погода в Сеяхе (Ямало-Ненецкий АО, Россия) (310 км)

Пояснения к столбцам:

Ветер - указаны скорость ветра в м/с - средняя за 10 мин, порывы в срок и между сроками (в фигурных скобках) и направление, откуда дует ветер: С - северный, СВ - северо-восточный, В - восточный, ЮВ - юго-восточный, Ю - южный, ЮЗ - юго-западный, З - западный, СЗ - северо-западный.
Видимость - горизонтальная дальность видимости в метрах или километрах. При видимости от 1 до 10 км при отсутствии осадков обычно наблюдается дымка, при ухудшении видимости до 1 км и менее - туман. В сухую погоду видимость может ухудшаться дымом, пылью или мглою.
Явления - указаны атмосферные явления, наблюдавшиеся в срок или в последний час перед сроком; фигурными скобками обозначены явления, наблюдавшиеся между сроками (за 1-3 часа до срока); квадратными скобками обозначены град или гололедные отложения с указанием их диаметра в мм.
Облачность - указаны через наклонную черту общая и нижняя облачность в баллах и высота нижней границы облаков в метрах; квадратными скобками обозначены формы облаков: Ci - перистые, Cs - перисто-слоистые, Cc - перисто-кучевые, Ac - высококучевые, As - высокослоистые, Sc - слоисто-кучевые, Ns - слоисто-дождевые, Cu - кучевые, Cb - кучево-дождевые. Подробнее классификацию облаков см. в Атласе облаков (PDF).
T - Температура воздуха - температура, измеренная на высоте 2 м над землей.
Td - Температура точки росы - температура, при понижении до которой содержащийся в воздухе водяной пар достигнет насыщения.
f - Относительная влажность воздуха - влажноcть воздуха, измеренная на высоте 2 м над землей.
Te - Эффективная температура - температура, которую ощущает одетый по сезону человек в тени. Характеристика душности погоды. При расчете учитывается влияние влажности воздуха и скорости ветра на теплоощущения человека.
Tes - Эффективная температура на солнце - температура, которую ощущает человек, с поправкой на солнечный нагрев. Характеристика знойности погоды. Зависит от высоты солнца над горизонтом, облачности и скорости ветра. Ночью, в пасмурную погоду, а также при ветре 12 м/с и более поправка равна нулю.
P - Атмосферное давление - приведенное к уровню моря атмосферное давление.
Po - Атмосферное давление - измеренное на уровне метеостанции атмосферное давление.
Tmin - Минимальная температура - минимум температуры воздуха на высоте 2 м над землей.
Tmax - Максимальная температура - максимум температуры воздуха на высоте 2 м над землей.
R - Количество осадков - Количество выпавших осадков за период времени, мм. При наведении курсора мыши на число - период времени, за который выпало указанное количество осадков.
R24 - Количество осадков - Количество выпавших осадков за 24 часа, мм.
S - Снежный покров - Высота снежного покрова, см. При наведении курсора мыши на число - состояние снежного покрова и степень покрытия местности в баллах.